User: anonymous   Login
Location: �chenoz-la-M�line
(47.6009°N, 6.1354°E)
Time: 07:32:10
(UTC+00:00)
Language:

Lacrosse 4 Rocket - Orbit

View from above orbital plane
View from above orbital plane
View from above satellite
View from above satellite

Ground track
Ground track

The orbit data is extracted from the following two-line orbital elements,

1 26474U 00047B   21108.92300404  .00000233  00000-0  30876-4 0  9994
2 26474  67.9934 314.7683 0059519 225.1236 134.5066 14.96124788124939
Epoch (UTC): 18 April 2021 22:09:07
Eccentricity: 0.0059519
inclination: 67.9934°
perigee height: 537 km
apogee height: 620 km
right ascension of ascending node: 314.7683°
argument of perigee: 225.1236°
revolutions per day: 14.96124788
mean anomaly at epoch: 134.5066°
orbit number at epoch: 12493

The dashed part of the orbit path shows where the satellite is in the earth's shadow,  

DLR